When you browse on this site, cookies collect data to enhance your experience and personalize the content and advertising you see.
Visit our Privacy Policy to learn more. By continuing to use the site, you agree to this use of cookies and data.
  • în România
  • Lista ţărilor
  • Pe 7 zile
  • Temperatura apei
  • Hartă satelitară
  • Meteo pe hartă
  • Widget-uri
  • user-avatar
    Intrare

    Meteo pe oră la Ramadi

    Astăzi, 24 Martie, Duminică

    Timp Temperatura Precipitaţii Vânt Presiune Umiditate
    00:00 +20°C° 0.1 mm 3 m/s 753 mmHg 36%
    01:00 +20°C° 0.2 mm 4 m/s 752 mmHg 36%
    02:00 +20°C° 0.2 mm 4 m/s 752 mmHg 36%
    03:00 +20°C° 0 mm 5 m/s 750 mmHg 38%
    04:00 +19°C° 0 mm 5 m/s 750 mmHg 37%
    05:00 +19°C° 0 mm 6 m/s 750 mmHg 36%
    06:00 +19°C° 0 mm 6 m/s 749 mmHg 34%
    07:00 +20°C° 0 mm 8 m/s 749 mmHg 34%
    08:00 +21°C° 0 mm 9 m/s 748 mmHg 34%
    09:00 +23°C° 0 mm 11 m/s 748 mmHg 33%
    10:00 +23°C° 0 mm 10 m/s 747 mmHg 31%
    11:00 +24°C° 0 mm 9 m/s 747 mmHg 29%
    12:00 +26°C° 0 mm 8 m/s 746 mmHg 28%
    13:00 +27°C° 0.1 mm 8 m/s 745 mmHg 28%
    14:00 +27°C° 0.1 mm 7 m/s 745 mmHg 28%
    15:00 +27°C° 0.1 mm 6 m/s 745 mmHg 28%
    16:00 +27°C° 0.5 mm 6 m/s 744 mmHg 31%
    17:00 +26°C° 0.5 mm 6 m/s 744 mmHg 35%
    18:00 +24°C° 0.5 mm 6 m/s 744 mmHg 39%
    19:00 +23°C° 0.3 mm 8 m/s 744 mmHg 45%
    20:00 +23°C° 0.3 mm 10 m/s 743 mmHg 50%
    21:00 +22°C° 0.3 mm 11 m/s 743 mmHg 55%
    22:00 +22°C° 1.3 mm 11 m/s 743 mmHg 59%
    23:00 +21°C° 1.3 mm 10 m/s 742 mmHg 63%

    Mâine, 25 Martie, Luni

    Timp Temperatura Precipitaţii Vânt Presiune Umiditate
    00:00 +21°C° 1.3 mm 9 m/s 741 mmHg 67%
    01:00 +21°C° 3.9 mm 9 m/s 741 mmHg 67%
    02:00 +21°C° 3.9 mm 8 m/s 741 mmHg 67%
    03:00 +21°C° 3.9 mm 8 m/s 741 mmHg 68%
    04:00 +20°C° 0.9 mm 7 m/s 741 mmHg 70%
    05:00 +18°C° 0.9 mm 7 m/s 741 mmHg 73%
    06:00 +17°C° 0.9 mm 6 m/s 741 mmHg 76%
    07:00 +17°C° 0 mm 6 m/s 742 mmHg 71%
    08:00 +19°C° 0 mm 6 m/s 742 mmHg 65%
    09:00 +18°C° 0 mm 7 m/s 743 mmHg 60%
    10:00 +20°C° 0.4 mm 7 m/s 744 mmHg 57%
    11:00 +20°C° 0.4 mm 7 m/s 745 mmHg 54%
    12:00 +21°C° 0.4 mm 8 m/s 745 mmHg 51%
    13:00 +21°C° 0.2 mm 7 m/s 746 mmHg 47%
    14:00 +22°C° 0.2 mm 6 m/s 746 mmHg 44%
    15:00 +22°C° 0.2 mm 5 m/s 746 mmHg 40%
    16:00 +22°C° 0 mm 4 m/s 747 mmHg 39%
    17:00 +22°C° 0 mm 3 m/s 747 mmHg 38%
    18:00 +23°C° 0 mm 2 m/s 748 mmHg 37%
    19:00 +21°C° 0 mm 3 m/s 748 mmHg 42%
    20:00 +20°C° 0 mm 5 m/s 749 mmHg 47%
    21:00 +19°C° 0 mm 6 m/s 750 mmHg 52%
    22:00 +17°C° 0 mm 7 m/s 750 mmHg 55%
    23:00 +16°C° 0 mm 7 m/s 750 mmHg 59%

    Poimâine, 26 Martie, Marţi

    Timp Temperatura Precipitaţii Vânt Presiune Umiditate
    00:00 +15°C° 0 mm 8 m/s 750 mmHg 63%
    01:00 +15°C° 0.6 mm 7 m/s 750 mmHg 67%
    02:00 +14°C° 0.6 mm 7 m/s 750 mmHg 71%
    03:00 +14°C° 0.6 mm 6 m/s 751 mmHg 74%
    04:00 +14°C° 0.2 mm 5 m/s 751 mmHg 75%
    05:00 +14°C° 0.2 mm 4 m/s 751 mmHg 75%
    06:00 +14°C° 0.2 mm 3 m/s 751 mmHg 76%
    07:00 +14°C° 0.4 mm 4 m/s 752 mmHg 74%
    08:00 +15°C° 0.4 mm 4 m/s 752 mmHg 73%
    09:00 +15°C° 0.4 mm 5 m/s 753 mmHg 72%
    10:00 +15°C° 0.1 mm 5 m/s 753 mmHg 67%
    11:00 +16°C° 0.1 mm 5 m/s 753 mmHg 63%
    12:00 +16°C° 0.1 mm 5 m/s 752 mmHg 59%
    13:00 +17°C° 0 mm 5 m/s 752 mmHg 54%
    14:00 +17°C° 0 mm 5 m/s 752 mmHg 50%
    15:00 +19°C° 0 mm 5 m/s 752 mmHg 45%
    16:00 +19°C° 0 mm 5 m/s 753 mmHg 45%
    17:00 +19°C° 0 mm 5 m/s 753 mmHg 45%
    18:00 +19°C° 0 mm 5 m/s 753 mmHg 45%
    19:00 +18°C° 0 mm 4 m/s 754 mmHg 47%
    20:00 +18°C° 0 mm 3 m/s 755 mmHg 49%
    21:00 +17°C° 0 mm 2 m/s 756 mmHg 51%
    22:00 +17°C° 0 mm 2 m/s 756 mmHg 51%
    23:00 +17°C° 0 mm 2 m/s 756 mmHg 51%

    27 Martie, Miercuri

    Timp Temperatura Precipitaţii Vânt Presiune Umiditate
    00:00 +17°C° 0 mm 2 m/s 756 mmHg 50%
    01:00 +16°C° 0 mm 2 m/s 756 mmHg 50%
    02:00 +16°C° 0 mm 2 m/s 756 mmHg 50%
    03:00 +16°C° 0 mm 2 m/s 756 mmHg 50%
    04:00 +16°C° 0 mm 2 m/s 757 mmHg 52%
    05:00 +15°C° 0 mm 2 m/s 757 mmHg 53%
    06:00 +15°C° 0 mm 1 m/s 757 mmHg 54%
    07:00 +16°C° 0 mm 1 m/s 758 mmHg 49%
    08:00 +18°C° 0 mm 1 m/s 759 mmHg 45%
    09:00 +19°C° 0 mm 2 m/s 759 mmHg 41%
    10:00 +20°C° 0 mm 3 m/s 759 mmHg 37%
    11:00 +21°C° 0 mm 3 m/s 759 mmHg 33%
    12:00 +22°C° 0 mm 4 m/s 759 mmHg 30%
    13:00 +23°C° 0 mm 4 m/s 758 mmHg 28%
    14:00 +23°C° 0 mm 4 m/s 758 mmHg 27%
    15:00 +25°C° 0 mm 4 m/s 757 mmHg 26%
    16:00 +23°C° 0 mm 4 m/s 757 mmHg 27%
    17:00 +23°C° 0 mm 4 m/s 757 mmHg 27%
    18:00 +23°C° 0 mm 4 m/s 757 mmHg 28%
    19:00 +22°C° 0 mm 4 m/s 757 mmHg 30%
    20:00 +21°C° 0 mm 5 m/s 758 mmHg 31%
    21:00 +21°C° 0 mm 5 m/s 758 mmHg 33%
    22:00 +20°C° 0 mm 5 m/s 757 mmHg 37%
    23:00 +20°C° 0 mm 6 m/s 757 mmHg 41%

    28 Martie, Joi

    Timp Temperatura Precipitaţii Vânt Presiune Umiditate
    00:00 +19°C° 0 mm 6 m/s 757 mmHg 45%
    01:00 +19°C° 0 mm 5 m/s 757 mmHg 46%
    02:00 +19°C° 0 mm 5 m/s 757 mmHg 48%
    03:00 +19°C° 0 mm 5 m/s 757 mmHg 49%
    04:00 +18°C° 0 mm 4 m/s 757 mmHg 49%
    05:00 +18°C° 0 mm 4 m/s 757 mmHg 49%
    06:00 +18°C° 0 mm 4 m/s 757 mmHg 49%
    07:00 +19°C° 0 mm 4 m/s 758 mmHg 43%
    08:00 +20°C° 0 mm 4 m/s 758 mmHg 38%
    09:00 +21°C° 0 mm 4 m/s 759 mmHg 33%
    10:00 +22°C° 0 mm 4 m/s 759 mmHg 31%
    11:00 +23°C° 0 mm 4 m/s 758 mmHg 29%
    12:00 +25°C° 0 mm 5 m/s 758 mmHg 28%
    13:00 +25°C° 0 mm 5 m/s 758 mmHg 27%
    14:00 +25°C° 0 mm 5 m/s 757 mmHg 26%
    15:00 +26°C° 0 mm 5 m/s 757 mmHg 25%
    16:00 +25°C° 0 mm 5 m/s 757 mmHg 27%
    17:00 +25°C° 0 mm 5 m/s 757 mmHg 28%
    18:00 +23°C° 0 mm 4 m/s 757 mmHg 29%
    19:00 +22°C° 0 mm 4 m/s 758 mmHg 32%
    20:00 +22°C° 0 mm 3 m/s 758 mmHg 36%
    21:00 +21°C° 0 mm 3 m/s 758 mmHg 39%
    22:00 +21°C° 0 mm 2 m/s 758 mmHg 40%
    23:00 +20°C° 0 mm 2 m/s 758 mmHg 41%

    29 Martie, Vineri

    Timp Temperatura Precipitaţii Vânt Presiune Umiditate
    00:00 +21°C° 0 mm 1 m/s 758 mmHg 42%
    01:00 +21°C° 0 mm 1 m/s 758 mmHg 43%
    02:00 +19°C° 0 mm 2 m/s 758 mmHg 43%
    03:00 +19°C° 0 mm 2 m/s 758 mmHg 43%
    04:00 +19°C° 0 mm 2 m/s 758 mmHg 44%
    05:00 +18°C° 0 mm 2 m/s 758 mmHg 46%
    06:00 +18°C° 0 mm 2 m/s 758 mmHg 48%
    07:00 +19°C° 0 mm 2 m/s 758 mmHg 45%
    08:00 +20°C° 0 mm 2 m/s 759 mmHg 41%
    09:00 +21°C° 0 mm 2 m/s 759 mmHg 38%
    10:00 +23°C° 0 mm 2 m/s 759 mmHg 34%
    11:00 +24°C° 0 mm 1 m/s 758 mmHg 30%
    12:00 +25°C° 0 mm 1 m/s 758 mmHg 27%
    13:00 +25°C° 0 mm 1 m/s 757 mmHg 26%
    14:00 +26°C° 0 mm 2 m/s 757 mmHg 25%
    15:00 +26°C° 0 mm 2 m/s 756 mmHg 24%
    16:00 +26°C° 0 mm 2 m/s 756 mmHg 24%
    17:00 +26°C° 0 mm 3 m/s 756 mmHg 24%
    18:00 +26°C° 0 mm 4 m/s 756 mmHg 24%
    19:00 +25°C° 0 mm 4 m/s 756 mmHg 26%
    20:00 +25°C° 0 mm 4 m/s 756 mmHg 27%
    21:00 +23°C° 0 mm 4 m/s 756 mmHg 28%
    22:00 +23°C° 0 mm 5 m/s 755 mmHg 29%
    23:00 +23°C° 0 mm 6 m/s 755 mmHg 29%
    Arată mai mult